Weather History for PAJC - October, 2011

Change the Weather History Date:

Wednesday, October 12, 2011

  Actual Average Record
Temperature  
Mean Temperature 44 °F -  
Max Temperature 50 °F 44 °F 51 °F (2002)
Min Temperature 39 °F 38 °F 32 °F (1996)
Degree Days  
Heating Degree Days 20    
Moisture  
Dew Point 28 °F    
Average Humidity 57    
Maximum Humidity 66    
Minimum Humidity 37    
Precipitation  
Precipitation 0.00 in - - ()
Sea Level Pressure  
Sea Level Pressure 30.07 in    
Wind  
Wind Speed 15 mph (West)    
Max Wind Speed 25 mph    
Max Gust Speed 36 mph    
Averages and records for this station are not official NWS values.
T = Trace of Precipitation, MM = Missing Value Source: NWS Daily Summary

Daily Weather History Graph

Daily Weather History Graph

Search for Another Location

Airport or City:

Trip Planner

Search our weather history database for the weather conditions in past years. The results will help you decide how hot, cold, wet, or windy it might be!

Date:

Astronomy

Oct. 12, 2011 Rise Set
Actual Time 8:59 AM AKDT 7:39 PM AKDT
Civil Twilight 8:21 AM AKDT 8:17 PM AKDT
Nautical Twilight 7:37 AM AKDT 9:00 PM AKDT
Astronomical Twilight 6:54 AM AKDT 9:44 PM AKDT
Moon 7:22 PM AKDT (10/12) 10:06 AM AKDT (10/12)
Length of Visible Light 11h 56m
Length of Day
10h 40m
Full, 100% of the Moon is Illuminated
Oct 12
Full
Oct 19
Last Quarter
Oct 26
New
Nov 2
First Quarter
Nov 10
Full

Hourly Weather History & Observations

Time (AKDT) Temp. Windchill Dew Point Humidity Pressure Visibility Wind Dir Wind Speed Gust Speed Precip Events Conditions
12:16 AM 39.2 °F 30.8 °F 26.6 °F 61% 29.99 in - West 15.0 mph 25.3 mph N/A   Scattered Clouds
12:36 AM 39.2 °F 29.3 °F 26.6 °F 61% 29.98 in - West 20.7 mph 27.6 mph N/A   Mostly Cloudy
12:56 AM 39.2 °F 29.0 °F 26.6 °F 61% 29.99 in - West 21.9 mph 27.6 mph N/A   Overcast
1:16 AM 39.2 °F 28.7 °F 26.6 °F 61% 29.99 in - West 23.0 mph 32.2 mph N/A   Overcast
1:36 AM 39.2 °F 31.2 °F 26.6 °F 61% 30.00 in - West 13.8 mph 27.6 mph N/A   Mostly Cloudy
1:56 AM 39.2 °F 29.8 °F 26.6 °F 61% 30.00 in - West 18.4 mph 25.3 mph N/A   Mostly Cloudy
2:16 AM 39.2 °F 30.8 °F 26.6 °F 61% 30.01 in - West 15.0 mph 23.0 mph N/A   Partly Cloudy
2:36 AM 39.2 °F 29.0 °F 28.4 °F 65% 30.01 in - West 21.9 mph 26.5 mph N/A   Partly Cloudy
2:56 AM 39.2 °F 29.8 °F 28.4 °F 65% 30.02 in - West 18.4 mph 29.9 mph N/A   Partly Cloudy
3:16 AM 39.2 °F 29.3 °F 28.4 °F 65% 30.03 in - West 20.7 mph 28.8 mph N/A   Clear
3:36 AM 39.2 °F 28.3 °F 28.4 °F 65% 30.03 in - West 25.3 mph 31.1 mph N/A   Partly Cloudy
3:56 AM 39.2 °F 28.7 °F 26.6 °F 61% 30.04 in - West 23.0 mph 31.1 mph N/A   Partly Cloudy
4:16 AM 39.2 °F 28.3 °F 26.6 °F 61% 30.04 in - West 25.3 mph 33.4 mph N/A   Partly Cloudy
4:36 AM 39.2 °F 28.5 °F 26.6 °F 61% 30.04 in - West 24.2 mph 35.7 mph N/A   Partly Cloudy
4:56 AM 39.2 °F 28.5 °F 26.6 °F 61% 30.06 in - West 24.2 mph 31.1 mph N/A   Partly Cloudy
5:16 AM 39.2 °F 28.7 °F 26.6 °F 61% 30.06 in - West 23.0 mph 31.1 mph N/A   Scattered Clouds
5:36 AM 39.2 °F 29.8 °F 26.6 °F 61% 30.07 in - West 18.4 mph 32.2 mph N/A   Partly Cloudy
5:56 AM 39.2 °F 31.6 °F 26.6 °F 61% 30.08 in - West 12.7 mph 29.9 mph N/A   Clear
6:16 AM 39.2 °F 30.8 °F 28.4 °F 65% 30.08 in - West 15.0 mph 25.3 mph N/A   Partly Cloudy
6:36 AM 39.2 °F 29.6 °F 26.6 °F 61% 30.08 in - West 19.6 mph 25.3 mph N/A   Scattered Clouds
6:56 AM 39.2 °F 29.6 °F 26.6 °F 61% 30.09 in - West 19.6 mph 23.0 mph N/A   Partly Cloudy
7:16 AM 39.2 °F 30.5 °F 26.6 °F 61% 30.09 in - West 16.1 mph 25.3 mph N/A   Partly Cloudy
7:36 AM 39.2 °F 31.2 °F 26.6 °F 61% 30.09 in - West 13.8 mph 26.5 mph N/A   Partly Cloudy
7:56 AM 39.2 °F 30.5 °F 28.4 °F 65% 30.10 in - WNW 16.1 mph 24.2 mph N/A   Partly Cloudy
8:16 AM 39.2 °F 31.2 °F 26.6 °F 61% 30.09 in - West 13.8 mph 17.3 mph N/A   Partly Cloudy
8:36 AM 39.2 °F 30.8 °F 28.4 °F 65% 30.09 in - West 15.0 mph 25.3 mph N/A   Clear
8:56 AM 39.2 °F 30.2 °F 28.4 °F 65% 30.10 in - West 17.3 mph 23.0 mph N/A   Clear
9:16 AM 41.0 °F 31.1 °F 28.4 °F 61% 30.09 in - West 23.0 mph 35.7 mph N/A   Clear
9:36 AM 41.0 °F 32.8 °F 28.4 °F 61% 30.11 in - West 16.1 mph 32.2 mph N/A   Clear
9:56 AM 41.0 °F 31.9 °F 28.4 °F 61% 30.12 in - West 19.6 mph 27.6 mph N/A   Clear
10:16 AM 41.0 °F 32.2 °F 26.6 °F 57% 30.13 in - West 18.4 mph 27.6 mph N/A   Clear
10:36 AM 41.0 °F 33.5 °F 28.4 °F 61% 30.11 in - NW 13.8 mph 21.9 mph N/A   Clear
10:56 AM 42.8 °F 34.0 °F 28.4 °F 57% 30.11 in - WSW 20.7 mph 28.8 mph N/A   Clear
11:16 AM 42.8 °F 38.0 °F 26.6 °F 53% 30.11 in - West 8.1 mph 20.7 mph N/A   Clear
11:36 AM 42.8 °F 35.4 °F 28.4 °F 57% 30.11 in - West 15.0 mph 21.9 mph N/A   Clear
11:56 AM 42.8 °F 34.8 °F 28.4 °F 57% 30.12 in - WSW 17.3 mph 26.5 mph N/A   Clear
12:16 PM 42.8 °F 34.8 °F 28.4 °F 57% 30.13 in - WSW 17.3 mph 24.2 mph N/A   Clear
12:36 PM 42.8 °F 35.4 °F 30.2 °F 61% 30.13 in - West 15.0 mph - N/A   Clear
1:16 PM 44.6 °F 42.2 °F 28.4 °F 53% 30.13 in - WNW 4.6 mph - N/A   Clear
1:36 PM 46.4 °F - 28.4 °F 50% 30.12 in - Calm Calm - N/A   Clear
1:56 PM 46.4 °F 43.5 °F 28.4 °F 50% 30.12 in - NNE 5.8 mph - N/A   Mostly Cloudy
2:16 PM 46.4 °F 41.9 °F 28.4 °F 50% 30.12 in - ENE 9.2 mph - N/A   Overcast
2:36 PM 46.4 °F 44.3 °F 28.4 °F 50% 30.11 in - NE 4.6 mph - N/A   Overcast
2:56 PM 48.2 °F - 26.6 °F 43% 30.11 in - Calm Calm - N/A   Mostly Cloudy
3:16 PM 48.2 °F - 24.8 °F 40% - - North - - N/A   Partly Cloudy
3:36 PM 48.2 °F - 24.8 °F 40% 30.10 in - West 6.9 mph - N/A   Clear
3:56 PM 50.0 °F - 26.6 °F 40% 30.09 in - West 3.5 mph - N/A   Clear
4:16 PM 50.0 °F - 24.8 °F 37% 30.09 in - NE 6.9 mph - N/A   Clear
4:36 PM 48.2 °F - 28.4 °F 46% 30.08 in - NNE 8.1 mph - N/A   Partly Cloudy
4:56 PM 48.2 °F - 28.4 °F 46% 30.08 in - NE 6.9 mph - N/A   Clear
5:16 PM 48.2 °F - 30.2 °F 50% 30.08 in - NE 5.8 mph - N/A   Clear
5:36 PM 48.2 °F - 30.2 °F 50% 30.08 in - NNE 4.6 mph - N/A   Clear
5:56 PM 48.2 °F - 30.2 °F 50% 30.08 in - ENE 3.5 mph - N/A   Clear
6:16 PM 46.4 °F - 32.0 °F 57% 30.08 in - Calm Calm - N/A   Clear
6:36 PM 46.4 °F - 30.2 °F 53% 30.07 in - Calm Calm - N/A   Clear
6:56 PM 46.4 °F - 35.6 °F 66% 30.07 in - Calm Calm - N/A   Clear
7:16 PM 46.4 °F - 30.2 °F 53% 30.06 in - Calm Calm - N/A   Partly Cloudy
7:36 PM 46.4 °F - 28.4 °F 50% 30.05 in - Calm Calm - N/A   Mostly Cloudy
7:56 PM 44.6 °F - 28.4 °F 53% 30.05 in - Calm Calm - N/A   Mostly Cloudy
8:16 PM 44.6 °F - 28.4 °F 53% 30.05 in - Calm Calm - N/A   Mostly Cloudy
8:36 PM 44.6 °F - 28.4 °F 53% 30.04 in - Calm Calm - N/A   Partly Cloudy
8:56 PM 44.6 °F 43.1 °F 28.4 °F 53% 30.03 in - SSE 3.5 mph - N/A   Clear
9:16 PM 42.8 °F - 32.0 °F 66% 30.04 in - Calm Calm - N/A   Clear
9:36 PM 42.8 °F - 30.2 °F 61% 30.04 in - Calm Calm - N/A   Clear
9:56 PM 44.6 °F 42.2 °F 30.2 °F 57% 30.03 in - SE 4.6 mph - N/A   Clear
10:16 PM 44.6 °F 43.1 °F 32.0 °F 61% 30.03 in - SSE 3.5 mph - N/A   Mostly Cloudy
10:36 PM 44.6 °F 43.1 °F 32.0 °F 61% 30.03 in - SSE 3.5 mph - N/A   Overcast
10:56 PM 42.8 °F - 33.8 °F 70% 30.03 in - Calm Calm - N/A   Overcast
11:16 PM 44.6 °F 42.2 °F 32.0 °F 61% 30.03 in - East 4.6 mph - N/A   Overcast
11:36 PM 44.6 °F - 32.0 °F 61% 30.03 in - Calm Calm - N/A   Overcast
11:56 PM 44.6 °F - 32.0 °F 61% 30.03 in - Calm Calm - N/A   Overcast